Tracking 19574 objects as of 15-Feb-2019
HD Live streaming from Space Station
objects crossing your sky now

MINOTAUR-C DEB

Track MINOTAUR-C DEB now!
10-day predictions


NORAD ID: 42993
Int'l Code: 2017-068G
Perigee: 503.4 km
Apogee: 529.8 km
Inclination: 97.4 °
Period: 94.8 minutes
Semi major axis: 6887 km
RCS: Unknown
Launch date: October 31, 2017
Source: United States (US)
Launch site: AIR FORCE WESTERN TEST RANGE (AFWTR)

Note: This is SATELLITE DEBRIS
aabbcc
Your satellite tracking list
Your tracking list is empty




NASA's NSSDC Master Catalog

Two Line Element Set (TLE):
1 42993U 17068G   19046.34682002  .00000587  00000-0  31318-4 0  9994
2 42993  97.3816 158.4109 0019154  22.8455 337.3628 15.18814225 71532
Source of the keplerian elements: AFSPC